• In Österreich
  • Länderverzeichnis
  • Für 7 Tage
  • Wassertemperatur
  • Satellitenkarten
  • Wetterkarte
  • News
  • Widgets
  • user-avatar
    Anmelden

    Stündliche Wetter Wadzhda

    Heute, 20 Januar, Samstag

    Zeit Temperatur Niederschläge Wind Luftdruck Luftfeuchtigkeit
    00:00 +8°C° 0 mm 2 m/S 717 mmHg 89%
    01:00 +8°C° 0 mm 2 m/S 717 mmHg 88%
    02:00 +7°C° 0 mm 2 m/S 717 mmHg 87%
    03:00 +7°C° 0 mm 2 m/S 717 mmHg 86%
    04:00 +7°C° 0 mm 2 m/S 718 mmHg 86%
    05:00 +7°C° 0 mm 2 m/S 718 mmHg 86%
    06:00 +7°C° 0 mm 2 m/S 718 mmHg 86%
    07:00 +8°C° 0 mm 2 m/S 719 mmHg 81%
    08:00 +9°C° 0 mm 2 m/S 719 mmHg 77%
    09:00 +10°C° 0 mm 2 m/S 719 mmHg 72%
    10:00 +13°C° 0 mm 2 m/S 720 mmHg 64%
    11:00 +13°C° 0 mm 3 m/S 720 mmHg 57%
    12:00 +14°C° 0 mm 3 m/S 720 mmHg 49%
    13:00 +14°C° 0 mm 3 m/S 720 mmHg 47%
    14:00 +16°C° 0 mm 3 m/S 720 mmHg 45%
    15:00 +16°C° 0 mm 3 m/S 720 mmHg 43%
    16:00 +15°C° 0 mm 2 m/S 719 mmHg 49%
    17:00 +13°C° 0 mm 2 m/S 719 mmHg 54%
    18:00 +12°C° 0 mm 1 m/S 719 mmHg 60%
    19:00 +11°C° 0 mm 1 m/S 720 mmHg 60%
    20:00 +11°C° 0 mm 1 m/S 720 mmHg 59%
    21:00 +11°C° 0 mm 1 m/S 720 mmHg 58%
    22:00 +10°C° 0 mm 2 m/S 720 mmHg 56%
    23:00 +10°C° 0 mm 2 m/S 720 mmHg 55%

    Morgen, 21 Januar, Sonntag

    Zeit Temperatur Niederschläge Wind Luftdruck Luftfeuchtigkeit
    00:00 +9°C° 0 mm 2 m/S 720 mmHg 53%
    01:00 +9°C° 0 mm 2 m/S 720 mmHg 53%
    02:00 +9°C° 0 mm 2 m/S 720 mmHg 53%
    03:00 +9°C° 0 mm 2 m/S 720 mmHg 54%
    04:00 +9°C° 0 mm 2 m/S 720 mmHg 55%
    05:00 +8°C° 0 mm 2 m/S 720 mmHg 57%
    06:00 +8°C° 0 mm 2 m/S 720 mmHg 58%
    07:00 +10°C° 0 mm 2 m/S 720 mmHg 54%
    08:00 +12°C° 0 mm 2 m/S 721 mmHg 49%
    09:00 +14°C° 0 mm 2 m/S 721 mmHg 45%
    10:00 +15°C° 0 mm 2 m/S 721 mmHg 39%
    11:00 +16°C° 0 mm 2 m/S 721 mmHg 33%
    12:00 +18°C° 0 mm 2 m/S 721 mmHg 27%
    13:00 +18°C° 0 mm 2 m/S 721 mmHg 27%
    14:00 +18°C° 0 mm 2 m/S 721 mmHg 27%
    15:00 +18°C° 0 mm 2 m/S 720 mmHg 27%
    16:00 +17°C° 0 mm 2 m/S 720 mmHg 35%
    17:00 +15°C° 0 mm 1 m/S 720 mmHg 42%
    18:00 +13°C° 0 mm 1 m/S 720 mmHg 50%
    19:00 +11°C° 0 mm 0 m/S 720 mmHg 51%
    20:00 +11°C° 0 mm 0 m/S 720 mmHg 52%
    21:00 +10°C° 0 mm 0 m/S 720 mmHg 53%
    22:00 +10°C° 0 mm 0 m/S 720 mmHg 52%
    23:00 +10°C° 0 mm 0 m/S 720 mmHg 52%

    übermorgen, 22 Januar, Montag

    Zeit Temperatur Niederschläge Wind Luftdruck Luftfeuchtigkeit
    00:00 +9°C° 0 mm 0 m/S 720 mmHg 51%
    01:00 +9°C° 0 mm 0 m/S 720 mmHg 51%
    02:00 +9°C° 0 mm 0 m/S 720 mmHg 50%
    03:00 +8°C° 0 mm 0 m/S 720 mmHg 50%
    04:00 +8°C° 0 mm 0 m/S 720 mmHg 50%
    05:00 +8°C° 0 mm 0 m/S 719 mmHg 49%
    06:00 +8°C° 0 mm 0 m/S 719 mmHg 49%
    07:00 +10°C° 0 mm 0 m/S 720 mmHg 46%
    08:00 +13°C° 0 mm 1 m/S 720 mmHg 43%
    09:00 +15°C° 0 mm 1 m/S 721 mmHg 40%
    10:00 +16°C° 0 mm 1 m/S 721 mmHg 36%
    11:00 +18°C° 0 mm 1 m/S 721 mmHg 32%
    12:00 +19°C° 0 mm 1 m/S 721 mmHg 28%
    13:00 +19°C° 0 mm 1 m/S 721 mmHg 29%
    14:00 +20°C° 0 mm 1 m/S 720 mmHg 29%
    15:00 +20°C° 0 mm 1 m/S 720 mmHg 30%
    16:00 +18°C° 0 mm 1 m/S 720 mmHg 38%
    17:00 +15°C° 0 mm 1 m/S 719 mmHg 46%
    18:00 +13°C° 0 mm 1 m/S 719 mmHg 55%
    19:00 +12°C° 0 mm 0 m/S 719 mmHg 55%
    20:00 +11°C° 0 mm 0 m/S 719 mmHg 55%
    21:00 +11°C° 0 mm 0 m/S 720 mmHg 55%
    22:00 +10°C° 0 mm 0 m/S 720 mmHg 54%
    23:00 +10°C° 0 mm 0 m/S 720 mmHg 53%

    23 Januar, Dienstag

    Zeit Temperatur Niederschläge Wind Luftdruck Luftfeuchtigkeit
    00:00 +10°C° 0 mm 0 m/S 719 mmHg 52%
    01:00 +10°C° 0 mm 0 m/S 719 mmHg 52%
    02:00 +9°C° 0 mm 0 m/S 719 mmHg 53%
    03:00 +9°C° 0 mm 0 m/S 719 mmHg 54%
    04:00 +9°C° 0 mm 0 m/S 719 mmHg 53%
    05:00 +9°C° 0 mm 1 m/S 719 mmHg 52%
    06:00 +9°C° 0 mm 1 m/S 719 mmHg 51%
    07:00 +11°C° 0 mm 1 m/S 719 mmHg 47%
    08:00 +13°C° 0 mm 1 m/S 720 mmHg 42%
    09:00 +15°C° 0 mm 1 m/S 720 mmHg 38%
    10:00 +16°C° 0 mm 1 m/S 720 mmHg 35%
    11:00 +18°C° 0 mm 1 m/S 720 mmHg 31%
    12:00 +20°C° 0 mm 1 m/S 721 mmHg 28%
    13:00 +20°C° 0 mm 1 m/S 720 mmHg 29%
    14:00 +20°C° 0 mm 1 m/S 720 mmHg 30%
    15:00 +20°C° 0 mm 1 m/S 719 mmHg 30%
    16:00 +18°C° 0 mm 1 m/S 719 mmHg 38%
    17:00 +15°C° 0 mm 1 m/S 719 mmHg 46%
    18:00 +13°C° 0 mm 1 m/S 719 mmHg 53%
    19:00 +13°C° 0 mm 1 m/S 719 mmHg 55%
    20:00 +12°C° 0 mm 1 m/S 720 mmHg 56%
    21:00 +12°C° 0 mm 1 m/S 720 mmHg 58%
    22:00 +12°C° 0 mm 1 m/S 720 mmHg 58%
    23:00 +10°C° 0 mm 0 m/S 720 mmHg 58%

    24 Januar, Mittwoch

    Zeit Temperatur Niederschläge Wind Luftdruck Luftfeuchtigkeit
    00:00 +10°C° 0 mm 0 m/S 719 mmHg 58%
    01:00 +10°C° 0 mm 0 m/S 719 mmHg 58%
    02:00 +9°C° 0 mm 0 m/S 719 mmHg 59%
    03:00 +9°C° 0 mm 0 m/S 719 mmHg 59%
    04:00 +10°C° 0 mm 1 m/S 719 mmHg 59%
    05:00 +10°C° 0 mm 1 m/S 719 mmHg 59%
    06:00 +10°C° 0 mm 1 m/S 718 mmHg 59%
    07:00 +11°C° 0 mm 1 m/S 719 mmHg 53%
    08:00 +13°C° 0 mm 1 m/S 719 mmHg 48%
    09:00 +15°C° 0 mm 1 m/S 720 mmHg 43%
    10:00 +16°C° 0 mm 2 m/S 720 mmHg 39%
    11:00 +18°C° 0 mm 2 m/S 720 mmHg 35%
    12:00 +19°C° 0 mm 2 m/S 720 mmHg 31%
    13:00 +19°C° 0 mm 2 m/S 719 mmHg 32%
    14:00 +19°C° 0 mm 2 m/S 719 mmHg 32%
    15:00 +20°C° 0 mm 2 m/S 718 mmHg 32%
    16:00 +18°C° 0 mm 2 m/S 718 mmHg 39%
    17:00 +16°C° 0 mm 1 m/S 718 mmHg 45%
    18:00 +14°C° 0 mm 1 m/S 718 mmHg 52%
    19:00 +14°C° 0 mm 1 m/S 718 mmHg 52%
    20:00 +13°C° 0 mm 1 m/S 718 mmHg 52%
    21:00 +13°C° 0 mm 1 m/S 718 mmHg 53%
    22:00 +13°C° 0 mm 1 m/S 718 mmHg 53%
    23:00 +12°C° 0 mm 1 m/S 718 mmHg 53%

    25 Januar, Donnerstag

    Zeit Temperatur Niederschläge Wind Luftdruck Luftfeuchtigkeit
    00:00 +12°C° 0 mm 2 m/S 718 mmHg 53%
    01:00 +12°C° 0 mm 2 m/S 718 mmHg 54%
    02:00 +12°C° 0 mm 2 m/S 717 mmHg 55%
    03:00 +10°C° 0 mm 2 m/S 717 mmHg 55%
    04:00 +10°C° 0 mm 2 m/S 717 mmHg 56%
    05:00 +10°C° 0 mm 2 m/S 717 mmHg 57%
    06:00 +10°C° 0 mm 2 m/S 717 mmHg 58%
    07:00 +12°C° 0 mm 2 m/S 717 mmHg 56%
    08:00 +13°C° 0 mm 2 m/S 717 mmHg 53%
    09:00 +13°C° 0 mm 3 m/S 718 mmHg 51%
    10:00 +14°C° 0 mm 3 m/S 718 mmHg 45%
    11:00 +17°C° 0 mm 3 m/S 718 mmHg 39%
    12:00 +18°C° 0 mm 3 m/S 718 mmHg 33%
    13:00 +18°C° 0 mm 3 m/S 717 mmHg 32%
    14:00 +18°C° 0 mm 3 m/S 716 mmHg 30%
    15:00 +19°C° 0 mm 4 m/S 716 mmHg 29%
    16:00 +17°C° 0 mm 3 m/S 716 mmHg 36%
    17:00 +15°C° 0 mm 2 m/S 715 mmHg 42%
    18:00 +14°C° 0 mm 2 m/S 715 mmHg 49%
    19:00 +13°C° 0 mm 1 m/S 715 mmHg 51%
    20:00 +13°C° 0 mm 1 m/S 715 mmHg 53%
    21:00 +12°C° 0 mm 1 m/S 716 mmHg 55%
    22:00 +12°C° 0 mm 2 m/S 715 mmHg 58%
    23:00 +10°C° 0 mm 2 m/S 715 mmHg 62%
    Mehr zeigen